Flag for Switzerland Weather past 2 weeks in Pratteln, Basel-Land, Switzerland

Now
50 °F

Clear.


Feels Like: 48 °F
Forecast: 45 / 62 °F
Wind: 5 mph from Northwest

Location: Bale-Mulhouse


UV Index: 0 (Low)

Visibility: N/A


Pressure: 29.65 "Hg

Humidity: 76%

Dew point: 43 °F

Location of PrattelnLocation

Historic Weather in Pratteln

°F

Pratteln temperature yesterday

Maximum temperature yesterday: 66 °F (at 4:00 PM)
Minimum temperature yesterday: 45 °F (at 1:30 AM)
Average temperature yesterday: 54 °F

Past Weeks' High & Low Weather Summary

 TemperatureHumidityPressure
High73 °F (Apr 7, 5:30 PM)100% (Apr 6, 1:00 AM)30.33 "Hg (Apr 6, 1:00 AM)
Low27 °F (Apr 16, 6:00 AM)24% (Apr 17, 6:00 PM)29.62 "Hg (Apr 20, 4:30 PM)
Average52 °F62%30.06 "Hg
* Reported Midnight between Apr 5 and Apr 6 — Midnight between Apr 20 and Apr 21, Pratteln, Weather by CustomWeather, © 2014

Note: Actual official high and low records may vary slightly from our data, if they occured in-between our weather recording intervals... More about our weather records

Advertising

Historic Weather Conditions — Data for Previous 24 hours

 ConditionsComfort  
Time TempWeatherWind HumidityBarometerVisibility
12:00 AM
Apr 21
50 °FClear.No wind82%29.65 "Hg10 mi
11:00 PM
Apr 20
52 °FClear.2 mph72%29.65 "Hg10 mi
10:30 PM52 °FClear.2 mph77%29.65 "Hg10 mi
10:00 PM54 °FClear.3 mph72%29.65 "Hg10 mi
9:30 PM55 °FClear.3 mph63%29.65 "Hg10 mi
9:00 PM57 °FPassing clouds.3 mph63%29.65 "HgN/A
8:30 PM55 °FPartly sunny.3 mph67%29.65 "HgN/A
8:00 PM59 °FPartly sunny.7 mph59%29.62 "HgN/A
7:30 PM63 °FPartly sunny.5 mph52%29.62 "HgN/A
7:00 PM64 °FPartly sunny.5 mph49%29.62 "HgN/A
6:30 PM63 °FPartly sunny.3 mph52%29.62 "HgN/A
6:00 PM63 °FPartly sunny.5 mph49%29.62 "HgN/A
5:30 PM64 °FPartly sunny.6 mph49%29.62 "HgN/A
5:00 PM64 °FPartly sunny.6 mph49%29.62 "HgN/A
4:30 PM66 °FPartly sunny.5 mph40%29.62 "HgN/A
4:00 PM66 °FPartly sunny.3 mph40%29.65 "HgN/A
3:30 PM64 °FPartly sunny.6 mph43%29.65 "HgN/A
3:00 PM64 °FPartly sunny.2 mph40%29.65 "HgN/A
2:30 PM63 °FPartly sunny.5 mph42%29.65 "HgN/A
2:00 PM61 °FPartly sunny.3 mph45%29.68 "HgN/A
1:30 PM61 °FPartly sunny.3 mph52%29.68 "HgN/A
1:00 PM59 °FPartly sunny.5 mph51%29.68 "HgN/A
12:00 PM57 °FPartly sunny.6 mph51%29.71 "HgN/A
11:30 AM55 °FPartly sunny.5 mph59%29.71 "HgN/A
10:30 AM54 °FPartly sunny.6 mph63%29.71 "HgN/A
10:00 AM52 °FPartly sunny.3 mph72%29.71 "HgN/A
9:30 AM50 °FPartly sunny.3 mph71%29.71 "HgN/A
9:00 AM48 °FBroken clouds.1 mph82%29.71 "Hg6 mi
8:30 AM46 °FBroken clouds.2 mph87%29.71 "Hg6 mi
8:00 AM46 °FPartly sunny.3 mph87%29.71 "Hg5 mi
7:30 AM46 °FOvercast.5 mph87%29.71 "Hg4 mi
7:00 AM46 °FOvercast.3 mph87%29.71 "Hg4 mi
6:30 AM46 °FOvercast.2 mph87%29.71 "Hg5 mi
6:00 AM46 °FPassing clouds.2 mph87%29.71 "Hg5 mi
5:30 AM46 °FOvercast.2 mph87%29.71 "Hg5 mi
5:00 AM46 °FOvercast.3 mph87%29.71 "Hg5 mi
4:30 AM46 °FOvercast.5 mph87%29.71 "Hg5 mi
4:00 AM46 °FOvercast.3 mph87%29.71 "Hg4 mi
3:30 AM46 °FOvercast.2 mph87%29.74 "Hg5 mi
3:00 AM46 °FOvercast.2 mph82%29.74 "Hg5 mi
2:30 AM46 °FOvercast.3 mph87%29.74 "Hg4 mi
2:00 AM45 °FOvercast.3 mph93%29.74 "Hg4 mi
1:30 AM45 °FOvercast.3 mph93%29.74 "Hg4 mi
1:00 AM46 °FMostly cloudy.3 mph87%29.74 "Hg4 mi
Weather by CustomWeather, © 2014

See weather overview